Regional Weather Roundup
Issued by NWS

Home | Current Version | Previous Version | Graphics & Text | Print | Product List | Glossary On
Versions: 1 2 3 4 5 6 7 8 9 10 11 12 13 14 15 16 17 18 19 20 21 22 23 24 25 26 27 28
000
ASUS45 KSLC 260810
RWRUT

UTAH REGIONAL WEATHER ROUNDUP
NATIONAL WEATHER SERVICE SALT LAKE CITY UT
200 AM MDT WED JUL 26 2017

UTZ001>011-023>025-260900-

NORTHERN UTAH

CITY           SKY/WX    TMP DP  RH WIND       PRES   REMARKS
BRIGHAM CITY   PTCLDY    74  54  50 CALM      30.13R
HILL AFB       CLOUDY    70  58  65 E10       30.15S
LOGAN          PTCLDY    64  57  78 N5        30.14R
OGDEN          MOCLDY    71  58  63 S8        30.12S
SALT LAKE CITY CLOUDY    75  60  59 SE6       30.11S
TOOELE VALLEY  CLOUDY    73  59  60 SW10      30.13R
WENDOVER       CLOUDY    73  56  54 VRB7      30.14R
HEBER CITY     CLOUDY    59  55  88 CALM      30.23R
WEST JORDAN    CLOUDY    71  65  81 S10       30.15S

$$

UTZ011>015-024>027-260900-

CENTRAL/NORTHEAST UTAH

CITY           SKY/WX    TMP DP  RH WIND       PRES   REMARKS
PROVO AIRPORT  NOT AVBL
MOAB/CANYONLAN MOCLDY    69  67  93 CALM      30.14S
DELTA          CLOUDY    64  59  82 N12       30.19S
PRICE          PTCLDY    60  59  96 N6        30.24F
ROOSEVELT      CLOUDY    64  61  88 W3        30.23S
VERNAL         MOCLDY    65  63  93 CALM      30.21S

$$

UTZ013>016-019>022-027-260900-

SOUTHERN UTAH

CITY           SKY/WX    TMP DP  RH WIND       PRES   REMARKS
BRYCE CANYON   CLEAR     57  56  96 NW8       30.38F
CEDAR CITY     CLEAR     60  57  89 W3        30.25F
MILFORD        NOT AVBL
ST GEORGE      MOSUNNY   73  69  87 SE7       30.11F
HANKSVILLE     CLEAR     68  63  83 CALM      30.17S
BLANDING       CLEAR     61  59  92 N5        30.32F

$$

REGIONAL REPORTS     COLORADO/ARIZONA

CITY           SKY/WX    TMP DP  RH WIND       PRES   REMARKS
CRAIG, CO      CLOUDY    62  58  86 CALM      30.27S
GRAND JUNCTION CLOUDY    67  66  97 CALM      30.17S
RIFLE, CO      CLOUDY    68  58  70 CALM      30.21S
MONTROSE, CO   CLOUDY    64  63  96 SE5       30.25F
CORTEZ, CO     CLOUDY    59  58  96 NE3       30.26F
COLORADO CITY    N/A     63  63 100 E9        30.26S
PAGE, AZ       CLEAR     70  62  76 S5        30.17S
GRAND CANYON   CLEAR     52  51  97 NE3       30.35S
KINGMAN, AZ    CLEAR     67  66  97 NE5       30.14R
FLAGSTAFF, AZ  CLEAR     55  54  96 CALM      30.38R

$$

REGIONAL REPORTS    NEVADA/IDAHO/WYOMING

CITY           SKY/WX    TMP DP  RH WIND       PRES   REMARKS
LAS VEGAS, NV  PTCLDY    80  67  64 CALM      30.05S
ELY, NY        PTCLDY    57  55  93 MISG      30.30R
ELKO, NV       MOCLDY    66  55  67 CALM      30.19S
POCATELLO, ID  CLOUDY    69  54  58 S9        30.15R
BURLEY, ID     CLOUDY    66  58  75 S17       30.11S
FORT BRIDGER,  CLOUDY    59  51  76 SW6       30.33F
EVANSTON, WY   CLOUDY    59  55  87 E5        30.32S
ROCK SPRINGS,  CLOUDY    58  54  86 E6        30.30F
KEMMERER, WY     N/A    N/A N/A N/A N10       30.35R

$$




USA.gov is the U.S. government's official web portal to all federal, state and local government web resources and services.